Flag for Canada Weather past 2 weeks in Resolute Bay, Nunavut, Canada

Now
7 °F

Sunny.


Feels Like: -15 °F
Forecast: 0 / 7 °F
Wind: 24 mph from Northeast

Location: Resolute

Current Time: May 4, 2015 at 12:06:03 AM

Latest Report: May 3, 2015 at 11:00 PM


Visibility: 15 mi

Pressure: 30.11 "Hg

Humidity: 85%

Dew point: 3 °F

Location of Resolute BayLocation

Historic Weather in Resolute Bay — Graph

°F

Resolute Bay temperature yesterday

Maximum temperature yesterday: 14 °F (at 6:00 PM)
Minimum temperature yesterday: 3 °F (at 2:00 AM)
Average temperature yesterday: 8 °F

Past Weeks' High & Low Weather Summary

 TemperatureHumidityPressure
High18 °F (Apr 25, 6:00 PM)92% (Apr 19, 12:00 AM)30.96 "Hg (Apr 19, 12:00 AM)
Low-11 °F (Apr 20, 1:00 AM)56% (Apr 24, 11:00 AM)29.97 "Hg (May 2, 12:00 PM)
Average8 °F79%30.35 "Hg
* Reported Apr 18 11:00 PM — May 3 11:00 PM, Resolute Bay, Weather by CustomWeather, © 2015

Note: Actual official high and low records may vary slightly from our data, if they occured in-between our weather recording intervals... More about our weather records

Advertising

Resolute Bay weather history for previous 24 hours

 ConditionsComfort  
Time TempWeatherWind HumidityBarometerVisibility
11:00 PM
Sun, May 3
7 °FSunny.24 mph85%30.11 "Hg15 mi
10:00 PM10 °FSunny.23 mph72%30.10 "Hg15 mi
9:00 PM9 °FSunny.25 mph78%30.10 "Hg15 mi
8:00 PM12 °FSunny.26 mph73%30.10 "Hg15 mi
7:00 PM12 °FSunny.21 mph73%30.10 "Hg15 mi
6:00 PM14 °FSunny.21 mph67%30.10 "Hg15 mi
5:00 PM12 °FSunny.17 mph73%30.10 "Hg15 mi
3:00 PM12 °FSunny.16 mph73%30.09 "Hg15 mi
2:00 PM12 °FSunny.17 mph67%30.08 "Hg15 mi
1:00 PM10 °FSunny.17 mph72%30.07 "Hg15 mi
12:00 PM9 °FSunny.16 mph78%30.07 "Hg15 mi
11:00 AM9 °FSunny.15 mph72%30.07 "Hg15 mi
10:00 AM7 °FSunny.22 mph78%30.06 "Hg15 mi
9:00 AM5 °FSunny.24 mph85%30.06 "Hg15 mi
8:00 AM5 °FSunny.32 mph85%30.04 "Hg15 mi
7:00 AM5 °FSunny.32 mph78%30.03 "Hg5 mi
6:00 AM3 °FSunny.26 mph85%30.03 "Hg15 mi
5:00 AM3 °FSunny.29 mph85%30.04 "Hg15 mi
4:00 AM5 °FLow level haze.31 mph78%30.03 "Hg15 mi
3:00 AM5 °FSunny.32 mph78%30.03 "Hg15 mi
2:00 AM3 °FLow level haze.31 mph78%30.03 "Hg15 mi
1:00 AM5 °FLow level haze.30 mph78%30.02 "Hg15 mi
12:00 AM7 °FLow level haze.26 mph78%30.01 "Hg15 mi
Weather by CustomWeather, © 2015

See weather overviewHow to use our weather pages